Temp
9 10 11 11 10 11 12 12 11 12 12 11 12 10 10 9 8 8 8 9 9 9 10 9 9 9 10 10 9 10 9 10 9 8 9 9 9 9 9 9 8 8 8 8
9 10 11 11 11 11 11 12 12 11 11 11 11 11 10 9 9 9 9 9 9 9 8 9 9 9 10 10 10 10 9 10 9 9 9 8 9 9 9 9 9 9 8 9
10 11 11 11 11 11 11 12 12 12 11 10 10 9 10 10 9 9 8 8 9 9 9 9 9 10 9 10 10 10 10 10 10 10 9 9 9 9 9 9 9 9 9 9
9 10 10 10 10 11 12 13 13 12 11 11 11 10 10 10 9 9 8 8 8 9 8 9 10 10 9 10 10 10 11 10 10 10 10 9 9 9 9 9 9 9 9 8
10 10 10 10 11 11 13 13 13 12 11 11 11 11 10 9 8 9 8 8 8 9 9 9 10 10 9 9 10 10 10 11 10 10 9 9 10 9 9 9 9 9 9 9
9 9 10 11 12 11 11 12 13 10 10 10 12 11 11 11 9 9 9 8 8 8 9 9 9 10 10 9 9 10 10 10 10 10 10 9 10 10 9 9 9 10 10 9
9 10 11 11 12 11 12 11 9 9 8 8 12 10 11 10 10 9 9 10 9 8 9 9 9 9 9 9 10 10 10 10 10 10 10 10 9 10 9 9 9 9 10 9
9 11 11 12 12 12 13 12 12 9 7 8 10 9 10 11 11 9 9 9 8 8 8 9 9 9 9 8 9 9 10 10 10 10 10 9 9 9 9 9 9 9 9 9
9 10 11 12 12 12 12 12 13 13 11 11 10 8 8 10 10 11 10 8 9 8 8 8 8 9 8 8 8 8 8 9 10 9 9 9 9 9 9 9 9 9 9 9
9 9 11 11 12 12 13 13 13 13 9 11 9 10 9 9 10 10 10 9 8 8 8 8 8 8 9 9 9 8 8 9 9 10 9 9 9 9 9 9 9 9 9 9
9 10 10 11 11 11 12 12 13 13 12 9 8 8 10 9 9 10 11 10 9 9 8 8 10 9 9 9 8 8 8 9 9 9 9 9 9 9 9 9 9 9 9 8
9 9 10 10 10 11 11 12 13 13 11 10 9 7 9 10 8 9 10 9 9 9 9 8 7 8 8 9 8 8 8 8 9 9 9 9 9 9 9 10 10 9 9 9
8 8 9 10 10 11 11 10 11 12 12 12 10 7 8 7 8 9 9 9 9 9 9 7 7 8 9 8 8 8 8 8 8 9 9 9 9 8 9 9 10 10 9 9
8 8 8 8 7 8 9 10 10 11 12 11 11 10 7 7 8 9 9 9 9 9 8 8 8 7 7 8 9 9 8 8 8 7 9 8 9 9 8 9 9 10 10 10
7 8 7 8 8 8 9 10 10 11 11 12 11 12 11 9 10 10 8 9 8 9 8 8 9 8 8 8 8 8 8 8 7 7 8 8 8 8 8 8 9 9 10 10
7 7 7 7 7 8 8 9 10 11 11 12 11 9 9 6 7 8 8 8 7 8 7 9 9 9 9 9 9 8 8 7 7 8 7 7 8 8 8 8 9 9 9 9
7 7 7 7 7 7 8 8 9 9 10 12 11 12 9 6 7 7 7 7 6 7 8 10 10 10 10 9 9 9 9 8 8 8 8 7 7 8 9 8 8 8 8 9
7 7 7 7 7 5 6 6 7 9 9 10 9 11 9 8 6 5 5 6 8 7 7 8 7 8 9 9 8 8 8 8 8 8 8 8 7 7 8 8 8 9 8 8
6 6 6 6 5 5 6 6 6 7 8 8 9 8 6 4 5 4 5 4 7 8 7 7 7 7 7 7 7 7 7 7 7 7 8 8 8 8 8 8 8 7 8 8
5 5 5 5 5 3 6 7 6 7 7 8 7 8 8 6 6 5 4 4 4 6 6 7 7 7 6 6 6 6 6 7 6 6 7 7 7 7 8 8 8 8 7 7
5 5 5 5 5 4 4 4 5 6 7 8 8 6 7 8 7 7 6 6 5 5 4 5 5 5 5 5 5 5 5 5 5 5 6 6 6 6 7 7 7 7 7 7
4 4 4 4 4 4 4 5 4 6 6 6 6 6 7 6 6 6 6 5 5 5 5 5 4 4 4 5 5 5 5 5 5 5 6 6 6 6 6 7 7 7 7 7
3 3 4 4 4 4 4 5 5 5 5 5 5 5 5 6 6 6 6 5 4 4 4 3 4 4 4 4 4 4 5 5 5 6 6 6 6 6 6 7 7 7 7 7
3 3 3 3 2 3 3 4 5 5 5 4 4 4 4 4 4 4 4 3 4 3 3 3 3 3 4 4 4 4 4 4 5 5 5 6 6 6 6 6 7 7 7 7
2 2 2 2 2 2 2 3 3 4 3 3 3 3 3 3 2 1 2 3 3 3 3 3 3 3 3 3 4 4 4 4 5 5 5 6 6 6 6 6 6 6 6 7
2 2 2 2 2 2 1 1 2 3 3 3 3 3 3 2 2 2 1 1 1 2 2 2 2 2 2 2 3 3 3 3 3 4 4 4 5 5 5 5 5 5 5 5
Height
3140 3143 3145 3151 3154 3157 3159 3160 3160 3162 3164 3166 3167 3170 3171 3174 3178 3179 3183 3189 3194 3198 3202 3204 3209 3210 3214 3216 3217 3218 3218 3219 3221 3223 3225 3226 3227 3227 3229 3231 3231 3234 3236 3237
3140 3140 3145 3150 3153 3155 3157 3159 3159 3162 3163 3166 3167 3169 3172 3174 3176 3178 3179 3187 3193 3197 3198 3203 3207 3211 3214 3216 3217 3218 3218 3221 3222 3224 3226 3226 3227 3228 3229 3230 3233 3234 3236 3238
3136 3141 3145 3148 3149 3153 3156 3157 3159 3162 3163 3164 3165 3168 3170 3172 3174 3179 3178 3180 3189 3194 3197 3202 3206 3211 3213 3215 3217 3218 3219 3221 3223 3224 3226 3227 3228 3229 3230 3232 3233 3234 3236 3239
3136 3140 3141 3144 3146 3151 3154 3156 3158 3159 3161 3163 3166 3167 3168 3168 3172 3174 3179 3181 3188 3192 3196 3202 3206 3210 3213 3214 3216 3217 3219 3222 3222 3224 3226 3228 3229 3231 3232 3233 3233 3234 3236 3238
3135 3137 3140 3141 3144 3149 3152 3153 3154 3154 3159 3160 3161 3163 3162 3164 3166 3169 3174 3177 3185 3189 3194 3200 3204 3209 3212 3213 3215 3218 3218 3220 3222 3225 3226 3228 3230 3230 3232 3233 3234 3234 3236 3238
3131 3133 3136 3138 3142 3146 3148 3149 3149 3152 3157 3159 3157 3160 3156 3156 3158 3166 3172 3177 3179 3185 3190 3196 3202 3208 3210 3212 3213 3216 3218 3219 3221 3223 3225 3227 3229 3231 3232 3234 3235 3235 3236 3238
3130 3130 3133 3136 3139 3143 3145 3147 3150 3157 3160 3157 3155 3158 3156 3158 3160 3165 3168 3172 3178 3182 3187 3192 3198 3202 3208 3209 3212 3214 3217 3219 3221 3223 3225 3226 3229 3231 3232 3234 3235 3237 3238 3239
3129 3130 3131 3133 3136 3139 3140 3143 3145 3153 3156 3154 3154 3155 3154 3154 3158 3163 3168 3174 3174 3179 3181 3187 3194 3199 3203 3209 3210 3213 3215 3217 3220 3222 3224 3226 3229 3230 3232 3234 3234 3236 3238 3239
3127 3127 3128 3131 3133 3137 3138 3139 3143 3143 3146 3149 3151 3152 3152 3152 3155 3159 3165 3168 3170 3173 3180 3183 3189 3194 3197 3204 3209 3212 3214 3216 3218 3220 3222 3225 3227 3230 3231 3232 3234 3235 3237 3239
3126 3126 3126 3128 3130 3131 3133 3137 3139 3138 3145 3145 3148 3149 3149 3149 3153 3157 3161 3165 3169 3173 3177 3180 3181 3188 3197 3200 3206 3209 3211 3214 3216 3219 3220 3222 3225 3226 3229 3232 3233 3235 3236 3238
3125 3126 3126 3127 3127 3127 3130 3131 3132 3136 3138 3138 3147 3148 3147 3150 3153 3156 3160 3164 3168 3172 3175 3174 3175 3177 3188 3195 3201 3205 3207 3209 3213 3215 3218 3220 3222 3224 3227 3231 3233 3234 3236 3238
3125 3125 3125 3127 3127 3126 3127 3127 3128 3130 3135 3136 3141 3146 3144 3147 3151 3156 3161 3163 3166 3168 3172 3168 3168 3168 3180 3189 3196 3200 3201 3205 3208 3212 3215 3218 3220 3222 3224 3228 3231 3233 3234 3236
3123 3125 3124 3125 3128 3126 3125 3126 3127 3128 3130 3133 3139 3145 3144 3146 3150 3154 3158 3162 3163 3166 3167 3165 3164 3163 3174 3182 3188 3191 3193 3200 3204 3208 3212 3215 3218 3219 3221 3224 3228 3230 3232 3233
3120 3125 3124 3124 3128 3127 3125 3126 3124 3127 3128 3130 3134 3139 3143 3144 3146 3149 3152 3154 3157 3159 3162 3164 3165 3163 3169 3174 3182 3186 3190 3192 3188 3201 3206 3209 3212 3215 3218 3221 3224 3227 3228 3229
3120 3123 3124 3124 3124 3126 3124 3124 3123 3125 3127 3128 3131 3133 3137 3141 3144 3146 3147 3151 3154 3156 3158 3163 3166 3168 3171 3174 3180 3185 3188 3179 3186 3199 3203 3205 3207 3209 3213 3217 3220 3222 3224 3227
3118 3121 3122 3123 3123 3124 3122 3122 3121 3122 3124 3126 3127 3130 3133 3139 3141 3143 3146 3150 3152 3154 3155 3158 3162 3167 3170 3174 3178 3182 3185 3187 3189 3195 3200 3201 3203 3204 3208 3212 3216 3218 3220 3222
3119 3118 3120 3122 3123 3125 3126 3122 3123 3123 3121 3123 3125 3129 3130 3135 3138 3142 3144 3148 3152 3152 3154 3158 3161 3165 3167 3170 3174 3178 3182 3187 3191 3194 3197 3196 3197 3197 3202 3206 3210 3213 3215 3217
3117 3117 3118 3119 3121 3125 3126 3122 3125 3126 3123 3124 3126 3128 3130 3133 3138 3142 3145 3146 3149 3152 3155 3157 3161 3164 3166 3169 3173 3177 3180 3183 3186 3189 3192 3194 3195 3198 3201 3201 3206 3207 3208 3210
3116 3117 3118 3120 3121 3123 3126 3125 3126 3129 3127 3125 3126 3127 3130 3134 3138 3141 3145 3148 3150 3153 3156 3158 3161 3164 3168 3170 3173 3176 3179 3181 3184 3186 3189 3191 3193 3196 3198 3201 3202 3201 3200 3201
3115 3116 3119 3119 3119 3120 3120 3125 3126 3128 3129 3128 3127 3130 3130 3132 3134 3139 3143 3147 3149 3152 3156 3159 3162 3165 3167 3170 3173 3176 3177 3179 3180 3183 3186 3187 3190 3193 3193 3195 3197 3198 3199 3199
3114 3115 3116 3116 3117 3117 3118 3119 3124 3126 3128 3125 3128 3133 3135 3135 3138 3139 3143 3147 3152 3155 3157 3159 3161 3165 3168 3170 3172 3173 3175 3177 3179 3181 3183 3185 3187 3188 3189 3192 3193 3194 3195 3196
3113 3114 3114 3116 3116 3118 3118 3120 3122 3121 3119 3123 3127 3129 3133 3137 3138 3140 3142 3147 3152 3155 3158 3161 3162 3165 3167 3168 3170 3172 3174 3175 3177 3178 3180 3180 3182 3184 3185 3187 3189 3189 3190 3191
3113 3113 3114 3116 3115 3116 3116 3118 3117 3118 3117 3120 3124 3127 3132 3135 3137 3140 3143 3145 3149 3153 3157 3159 3161 3163 3164 3165 3166 3168 3169 3171 3173 3174 3175 3176 3178 3179 3181 3182 3183 3184 3185 3186
3111 3111 3112 3113 3113 3113 3114 3115 3115 3116 3117 3120 3123 3126 3131 3134 3137 3139 3142 3147 3150 3153 3155 3157 3158 3159 3160 3161 3162 3162 3163 3165 3166 3168 3169 3169 3171 3172 3174 3175 3177 3178 3179 3179
3109 3109 3110 3110 3111 3111 3112 3114 3115 3115 3117 3121 3123 3126 3129 3131 3134 3136 3139 3142 3146 3148 3150 3152 3153 3154 3154 3155 3156 3156 3157 3158 3159 3161 3162 3164 3164 3165 3166 3166 3168 3169 3170 3170
3105 3106 3108 3108 3110 3110 3111 3111 3113 3116 3117 3118 3121 3123 3125 3128 3132 3134 3137 3140 3142 3144 3146 3148 3148 3149 3150 3150 3150 3151 3152 3153 3154 3155 3156 3157 3158 3159 3159 3160 3160 3161 3161 3161
Wind_Speed
26 26 28 22 15 14 12 2 2 13 19 20 18 13 18 27 31 40 35 33 28 22 18 13 11 5 6 9 9 13 12 10 9 8 9 12 11 12 11 9 10 13 12 12
29 27 28 20 15 16 13 6 1 5 7 13 16 15 16 26 25 37 41 36 28 25 22 19 17 10 8 10 10 12 13 12 11 11 10 11 10 11 9 10 11 12 12 14
27 16 21 16 15 20 16 12 8 9 8 11 7 12 13 24 24 29 31 29 32 27 21 21 18 10 9 11 11 11 13 13 12 11 11 10 9 10 9 9 9 11 13 13
18 16 12 9 10 15 17 14 10 15 17 11 6 2 18 23 29 29 32 34 31 29 28 25 17 14 9 11 12 13 13 12 11 13 12 12 10 7 8 9 9 10 14 14
9 9 7 9 12 12 16 11 14 20 23 14 11 3 14 27 34 35 44 34 30 31 31 26 20 14 7 9 14 15 13 11 11 12 14 9 10 9 8 7 7 10 12 15
14 13 12 13 12 9 11 10 8 12 21 5 16 15 7 25 35 30 36 40 35 34 36 31 27 18 11 11 15 18 15 11 10 11 13 12 10 9 8 8 8 8 11 14
15 15 13 15 14 10 11 16 5 3 2 6 11 16 10 6 18 29 39 23 31 27 40 39 32 27 17 16 15 17 16 13 11 10 13 14 12 9 9 9 7 6 8 12
5 4 13 15 13 6 11 21 9 6 5 4 8 7 6 9 12 29 32 25 21 30 43 43 38 32 27 17 17 12 10 14 13 11 12 14 13 13 12 8 8 6 7 9
4 6 7 9 9 10 11 28 19 7 4 4 8 5 6 13 20 24 25 40 24 31 34 39 42 37 30 22 17 10 8 12 18 16 15 15 16 14 15 11 11 8 8 8
5 11 10 7 12 13 16 16 11 9 5 3 3 5 7 21 25 31 22 26 36 33 36 37 35 37 33 28 24 21 18 12 20 21 18 17 17 15 15 14 12 9 9 11
1 8 8 4 5 6 11 18 9 11 4 6 3 5 12 25 30 30 20 16 22 24 28 27 30 38 42 33 30 26 24 22 21 26 23 20 18 18 16 13 12 13 13 11
2 6 8 10 4 5 5 7 15 14 5 6 5 3 11 20 34 29 27 22 18 14 11 16 27 30 39 36 35 34 36 26 22 27 25 22 22 21 19 16 15 15 15 15
2 5 5 6 6 5 8 8 3 5 9 9 7 4 8 13 18 21 19 19 23 21 13 5 23 29 41 37 31 34 32 31 26 23 21 21 22 22 22 20 19 17 16 16
6 5 6 9 9 11 5 5 5 7 6 15 11 16 22 19 18 19 16 10 10 18 18 12 7 10 17 17 12 31 32 38 39 30 14 26 25 22 21 21 20 20 20 19
8 8 4 12 10 14 11 6 6 10 10 16 21 18 20 22 18 10 16 13 12 12 21 21 20 23 23 23 24 15 17 22 14 17 11 23 26 24 23 22 22 20 19 18
3 8 9 14 4 9 16 9 1 13 17 13 17 19 19 22 20 16 12 12 13 13 11 12 22 21 24 24 23 28 25 21 20 20 21 21 25 32 28 25 25 24 23 21
5 5 13 5 11 6 5 16 10 2 17 17 22 17 24 25 22 20 19 15 16 14 16 14 18 23 23 24 25 23 25 23 20 18 15 12 13 17 30 29 28 27 27 28
7 6 7 7 8 4 12 5 16 2 9 17 12 17 22 19 17 16 17 18 18 17 12 13 15 18 20 19 19 18 19 20 19 19 16 13 17 16 16 11 22 35 29 28
6 7 3 3 11 4 18 9 11 7 6 6 7 15 21 22 21 23 20 15 13 11 12 14 13 13 14 15 16 17 20 21 22 23 23 20 16 19 17 20 15 15 15 22
6 6 7 7 4 7 15 26 19 15 14 10 10 13 17 22 24 24 21 15 13 16 13 13 12 12 13 12 12 12 11 12 11 13 18 20 22 22 21 23 25 21 20 13
8 6 6 9 4 3 9 16 16 16 18 19 15 14 15 17 13 13 17 12 11 11 10 9 10 10 9 10 10 10 11 12 11 11 12 14 16 16 16 16 15 16 21 25
7 5 6 6 4 3 5 6 14 11 9 17 18 17 20 18 14 10 8 9 8 7 6 5 8 9 9 11 12 13 14 15 15 14 14 15 14 13 13 13 14 15 15 15
5 5 4 6 8 5 3 4 7 6 9 13 20 20 18 19 18 13 10 8 6 4 6 6 11 11 12 15 17 18 20 21 22 22 22 21 22 22 22 22 22 22 23 23
10 10 7 8 8 7 7 7 8 5 2 7 14 13 18 16 17 18 10 8 11 10 13 8 7 9 11 15 21 23 24 25 25 27 28 28 29 29 29 29 29 30 31 31
13 12 11 13 15 10 8 8 10 11 6 5 7 8 9 11 12 12 13 14 17 18 17 16 20 18 17 16 16 19 22 25 27 29 29 29 29 30 31 31 30 30 31 33
11 15 13 14 15 18 14 12 11 12 13 12 11 10 8 7 9 11 16 16 16 18 18 20 20 21 21 23 23 20 20 21 22 23 24 25 27 28 28 28 29 27 26 28
Wind_Direction
185 200 206 200 208 186 163 75 304 241 239 222 213 229 211 193 194 179 179 190 196 201 202 193 194 233 277 224 197 179 175 166 153 162 163 168 151 142 148 157 161 156 158 150
193 208 208 211 221 221 229 245 141 214 225 211 218 228 221 204 203 197 172 188 199 201 210 195 195 235 249 214 209 178 179 177 171 169 165 160 155 162 156 150 168 168 164 154
197 217 215 219 220 217 222 230 219 243 190 183 207 216 220 210 208 206 190 182 191 207 210 205 206 229 237 211 200 199 176 194 179 172 165 167 166 157 158 165 162 164 169 159
212 195 185 201 209 206 218 219 246 250 213 175 168 109 224 225 212 202 201 191 194 211 213 206 215 233 234 213 201 211 185 185 191 175 175 181 177 171 167 173 176 166 173 170
198 189 205 244 198 191 218 242 273 258 211 182 197 238 265 222 214 209 197 199 194 207 199 216 228 236 236 229 206 211 209 184 193 196 185 197 182 172 172 173 179 167 170 174
235 219 229 200 182 216 271 274 254 200 196 230 236 211 255 219 216 203 193 192 193 204 205 204 218 230 236 221 211 208 211 198 200 209 201 200 200 177 172 178 175 169 168 174
252 258 224 213 218 244 250 214 114 106 195 225 212 211 234 245 233 210 201 207 209 197 205 206 210 213 207 214 205 201 210 207 208 221 214 201 197 180 186 186 180 170 172 174
259 231 214 215 226 225 209 210 185 168 190 191 158 208 237 221 216 197 200 193 223 193 209 211 206 214 210 193 185 171 193 207 205 211 216 203 196 202 193 190 179 189 178 163
202 256 217 225 222 227 199 212 223 180 187 154 178 219 244 202 191 191 197 213 222 207 215 222 207 211 205 186 186 187 190 205 204 201 208 205 204 202 202 200 201 199 191 173
237 261 262 271 230 244 227 220 197 189 151 167 214 228 196 187 190 190 204 216 224 222 230 211 218 214 209 198 203 203 209 218 207 203 205 210 206 206 202 210 195 194 204 196
149 243 257 287 189 182 190 196 183 190 205 145 155 221 190 187 187 187 186 189 209 221 235 234 255 220 206 201 209 209 215 213 215 208 208 208 212 219 222 213 210 204 203 210
300 289 268 250 4 142 132 176 202 198 146 124 127 259 214 197 195 202 196 198 187 195 224 208 214 222 205 204 211 217 218 216 212 215 214 212 214 216 223 223 219 217 215 218
42 282 281 246 197 124 98 82 168 175 180 155 188 208 183 171 199 211 211 223 229 219 215 126 208 198 199 208 213 221 219 215 212 212 213 217 220 220 222 226 222 218 217 221
212 285 261 133 78 28 328 15 35 202 182 175 203 217 180 182 183 183 187 189 219 228 207 201 196 215 186 191 186 223 217 229 209 190 219 218 215 220 224 224 225 224 218 217
213 225 184 127 73 29 45 14 324 219 215 187 207 198 185 188 180 189 201 206 198 207 220 213 206 217 210 216 224 215 241 249 194 170 213 215 219 225 227 230 227 223 222 224
221 195 170 197 157 24 47 49 62 210 201 194 180 183 186 186 185 187 195 194 189 179 178 192 201 205 203 217 222 225 232 231 229 228 237 239 233 239 231 229 231 229 226 227
203 214 207 157 224 274 26 32 39 1 184 208 185 193 181 182 183 201 197 206 188 188 177 175 187 205 218 220 218 218 215 221 221 213 233 240 233 221 224 231 229 237 243 237
189 201 209 222 209 127 231 356 347 336 193 193 209 194 190 175 167 186 192 207 199 190 192 180 177 181 188 194 197 198 201 208 210 207 212 214 218 206 233 225 252 244 263 255
223 221 215 181 205 238 194 221 307 325 168 191 214 188 171 170 173 179 189 194 198 194 190 187 178 172 173 179 192 203 210 215 216 221 223 211 202 207 227 223 239 253 267 256
177 210 216 206 178 202 230 227 261 271 263 238 221 201 194 183 184 191 184 193 181 167 177 182 182 179 175 173 175 183 189 199 208 214 211 219 218 233 240 241 240 242 246 248
205 188 205 220 215 199 193 197 223 242 255 220 213 205 215 211 209 198 172 156 142 160 163 172 178 182 183 185 187 193 203 205 205 203 202 205 212 217 223 227 230 239 235 241
206 197 188 210 213 208 180 190 213 228 226 201 199 199 210 217 208 210 189 176 147 148 163 200 213 214 222 228 228 226 224 224 225 226 227 225 229 232 240 248 259 264 262 257
191 193 199 201 219 210 195 212 262 289 278 216 197 200 208 212 214 194 207 214 227 253 279 248 212 228 238 243 246 249 248 246 245 245 246 247 248 250 256 261 267 268 268 269
215 219 222 206 189 197 201 205 227 260 33 163 198 206 213 217 220 223 220 237 251 256 282 241 256 246 251 252 247 247 249 253 255 256 257 258 260 261 262 262 263 265 266 265
204 205 216 221 196 186 202 225 223 241 249 176 180 191 218 223 226 249 252 245 235 240 237 251 271 256 275 279 268 259 256 256 258 259 259 259 260 263 267 269 268 266 264 263
222 215 225 240 231 217 219 228 222 236 250 261 269 269 272 262 244 243 229 232 239 249 239 261 256 252 261 270 269 264 259 257 256 255 256 257 258 259 261 265 268 265 262 263